Weather History for Mobridge, SD

Change the Weather History Date:

Wednesday, November 2, 2011

  Actual Average Record
Temperature  
Mean Temperature 36 °F 40 °F  
Max Temperature 49 °F 51 °F 78 °F (1917)
Min Temperature 22 °F 28 °F -1 °F (1951)
Degree Days  
Heating Degree Days 29 25  
Month to date heating degree days 48 50  
Since 1 July heating degree days 674 824  
Cooling Degree Days 0 0  
Month to date cooling degree days 0 0  
Year to date cooling degree days 684 644  
Moisture  
Dew Point 21 °F    
Average Humidity 56    
Maximum Humidity 85    
Minimum Humidity 26    
Precipitation  
Precipitation 0.00 in 0.04 in 1.46 in (1956)
Month to date precipitation 0.01 0.07  
Year to date precipitation 18.85 17.02  
Snow  
Snow 0.00 in - - ()
Month to date snowfall 0.0  
Since 1 July snowfall 0.0  
Snow Depth 0.00 in    
Sea Level Pressure  
Sea Level Pressure 30.37 in    
Wind  
Wind Speed 8 mph (NNW)    
Max Wind Speed 18 mph    
Max Gust Speed 26 mph    
Visibility 10 miles    
Events      
T = Trace of Precipitation, MM = Missing Value Source: NWS Daily Summary

Daily Weather History Graph

Daily Weather History Graph

Search for Another Location

Airport:

Trip Planner

Search our weather history database for the weather conditions in past years. The results will help you decide how hot, cold, wet, or windy it might be!

Date:

Astronomy

Nov. 02, 2011 Rise Set
Actual Time 8:22 AM CDT 6:27 PM CDT
Civil Twilight 7:51 AM CDT 6:58 PM CDT
Nautical Twilight 7:16 AM CDT 7:33 PM CDT
Astronomical Twilight 6:41 AM CDT 8:07 PM CDT
Moon 2:42 PM CDT (11/2) 12:11 AM CDT (11/2)
Length of Visible Light 11h 07m
Length of Day
10h 05m
Waxing Crescent, 50% of the Moon is Illuminated
Nov 2
Waxing Crescent
Nov 10
Full
Nov 18
Last Quarter
Nov 25
New
Dec 2
First Quarter

Hourly Weather History & Observations

Time (CDT) Temp. Windchill Dew Point Humidity Pressure Visibility Wind Dir Wind Speed Gust Speed Precip Events Conditions
12:52 AM 39.9 °F 32.5 °F 28.0 °F 63% 30.26 in 10.0 mi North 12.7 mph - N/A   Clear
1:52 AM 39.0 °F 32.3 °F 28.0 °F 65% 30.29 in 10.0 mi North 10.4 mph - N/A   Overcast
2:52 AM 37.0 °F 29.3 °F 26.1 °F 65% 30.32 in 10.0 mi NNW 11.5 mph - N/A   Overcast
3:52 AM 33.1 °F 23.4 °F 25.0 °F 72% 30.32 in 10.0 mi NW 13.8 mph - N/A   Clear
4:52 AM 30.9 °F 22.2 °F 24.1 °F 76% 30.35 in 10.0 mi NW 10.4 mph - N/A   Clear
5:52 AM 28.0 °F 20.0 °F 23.0 °F 81% 30.37 in 10.0 mi NW 8.1 mph - N/A   Clear
6:52 AM 28.9 °F 20.4 °F 24.1 °F 82% 30.38 in 10.0 mi North 9.2 mph - N/A   Clear
7:52 AM 28.0 °F 19.3 °F 21.9 °F 78% 30.39 in 10.0 mi NNW 9.2 mph - N/A   Clear
8:52 AM 25.0 °F 17.1 °F 19.9 °F 81% 30.42 in 10.0 mi North 6.9 mph - N/A   Clear
9:52 AM 30.9 °F 21.2 °F 21.9 °F 69% 30.42 in 10.0 mi NNW 12.7 mph - N/A   Clear
10:52 AM 36.0 °F 29.6 °F 23.0 °F 59% 30.42 in 10.0 mi NNW 8.1 mph - N/A   Clear
11:52 AM 41.0 °F 34.3 °F 21.9 °F 47% 30.41 in 10.0 mi NW 11.5 mph - N/A   Clear
12:52 PM 45.0 °F 37.9 °F 18.0 °F 34% 30.40 in 10.0 mi NW 16.1 mph 20.7 mph N/A   Clear
1:52 PM 46.9 °F - 15.1 °F 28% 30.38 in 10.0 mi NNW 13.8 mph 26.5 mph N/A   Clear
2:52 PM 48.0 °F - 17.1 °F 29% 30.37 in 10.0 mi NW 10.4 mph 23.0 mph N/A   Clear
3:52 PM 48.0 °F - 16.0 °F 28% 30.35 in 10.0 mi NNW 12.7 mph 20.7 mph N/A   Clear
4:52 PM 48.0 °F - 16.0 °F 28% 30.36 in 10.0 mi NW 9.2 mph - N/A   Clear
5:52 PM 45.0 °F 41.8 °F 17.1 °F 33% 30.37 in 10.0 mi NNW 5.8 mph - N/A   Clear
6:52 PM 30.9 °F 27.5 °F 17.1 °F 57% 30.39 in 10.0 mi North 3.5 mph - N/A   Clear
7:52 PM 25.0 °F - 17.1 °F 72% 30.40 in 10.0 mi Calm Calm - N/A   Clear
8:52 PM 24.1 °F - 18.0 °F 77% 30.39 in 10.0 mi Calm Calm - N/A   Clear
9:52 PM 24.1 °F 19.7 °F 19.0 °F 81% 30.37 in 10.0 mi East 3.5 mph - N/A   Clear
10:52 PM 28.0 °F 24.2 °F 19.0 °F 69% 30.35 in 10.0 mi SSE 3.5 mph - N/A   Clear
11:52 PM 28.0 °F 24.2 °F 18.0 °F 66% 30.33 in 10.0 mi SE 3.5 mph - N/A   Clear